contact:dominique.lefevre@mio.osupytheas.fr, maurice.libes@osupytheas.fr, didier.mallarino@osupytheas.fr
Project:EMSO http://www.emso-fr.org/EMSO-France
Depth: 2436.0 m
Title:EMSO Ligure Ouest : Data MII capteur AQUADOPP
Date,Latitude,Longitude,X_East,Y_North,Z_Up,Amplitude_X,Amplitude_Y,Amplitude_Z,Batterie,SoundSpeed,Heading,Pitch,Roll,Pressure,TIS,Speed,Direction
, degrees North, degrees East, m.s-1, m.s-1,m.s-1, 1, 1, 1, Volt, m.s-1, degree, degree, degree, dbar, degree_C, m.s-1, degree
2021-04-29T00:04:03,42.805,6.029,0.041,-0.018,0.013,104.0,106.0,102.0,13.4,1505.2,329.1,-0.7,1.9,2467.369,13.28,0.044,113.7
2021-04-29T00:07:03,42.805,6.029,0.05,-0.028,0.015,103.0,104.0,102.0,13.3,1505.2,329.0,-0.8,1.8,2467.379,13.28,0.057,119.3
2021-04-29T00:10:03,42.805,6.029,0.045,-0.021,0.047,103.0,105.0,101.0,13.4,1505.2,325.4,-0.8,1.8,2467.448,13.28,0.049,115.0
2021-04-29T00:13:03,42.805,6.029,0.027,-0.034,0.025,104.0,105.0,101.0,13.3,1505.2,328.1,-0.7,1.8,2467.386,13.28,0.043,141.5
2021-04-29T00:16:03,42.805,6.029,0.06,-0.014,0.02,103.0,104.0,101.0,13.3,1505.2,326.0,-0.7,1.8,2467.428,13.28,0.061,103.1
2021-04-29T00:19:03,42.805,6.029,0.012,-0.006,-0.008,103.0,105.0,101.0,13.3,1505.2,328.7,-0.8,1.8,2467.389,13.28,0.013,116.6
2021-04-29T00:22:03,42.805,6.029,0.062,-0.023,0.036,103.0,107.0,101.0,13.3,1505.2,324.2,-0.8,1.8,2467.409,13.28,0.066,110.3
2021-04-29T00:25:03,42.805,6.029,0.057,-0.014,0.022,103.0,107.0,103.0,13.4,1505.2,326.8,-0.7,1.8,2467.395,13.28,0.058,103.8
2021-04-29T00:28:03,42.805,6.029,0.064,-0.003,0.057,103.0,105.0,102.0,13.4,1505.2,326.5,-0.8,1.8,2467.395,13.28,0.064,92.7
2021-04-29T00:31:03,42.805,6.029,0.066,-0.023,0.005,102.0,106.0,101.0,13.4,1505.2,328.1,-0.7,1.8,2467.426,13.28,0.069,109.2
2021-04-29T00:34:03,42.805,6.029,0.058,-0.045,0.007,104.0,104.0,101.0,13.4,1505.2,326.1,-0.7,1.8,2467.468,13.28,0.073,127.8
2021-04-29T00:37:03,42.805,6.029,0.024,-0.015,0.027,104.0,104.0,102.0,13.4,1505.2,327.4,-0.8,1.8,2467.443,13.28,0.028,122.0
2021-04-29T00:40:03,42.805,6.029,0.04,-0.01,0.014,103.0,104.0,103.0,13.4,1505.2,328.4,-0.8,1.8,2467.463,13.28,0.041,104.0
2021-04-29T00:43:03,42.805,6.029,0.046,-0.014,0.015,102.0,105.0,102.0,13.4,1505.2,326.7,-0.8,1.8,2467.507,13.28,0.048,106.9
2021-04-29T00:46:03,42.805,6.029,0.055,-0.018,0.029,103.0,106.0,102.0,13.4,1505.2,325.7,-0.8,1.8,2467.524,13.28,0.057,108.1
2021-04-29T00:49:03,42.805,6.029,0.034,-0.02,0.011,104.0,105.0,102.0,13.4,1505.2,326.1,-0.7,1.8,2467.507,13.28,0.039,120.5
2021-04-29T00:52:03,42.805,6.029,0.043,-0.013,0.011,103.0,106.0,101.0,13.4,1505.2,328.6,-0.8,1.8,2467.535,13.28,0.044,106.8
2021-04-29T00:55:03,42.805,6.029,0.036,-0.018,0.028,103.0,105.0,102.0,13.4,1505.2,323.6,-0.8,1.8,2467.573,13.28,0.04,116.6
2021-04-29T00:58:03,42.805,6.029,0.023,-0.026,0.007,104.0,105.0,102.0,13.4,1505.2,325.0,-0.8,1.8,2467.573,13.28,0.034,138.5
2021-04-29T01:04:03,42.805,6.029,0.027,-0.017,0.026,104.0,105.0,101.0,13.3,1505.2,324.9,-0.8,1.9,2467.641,13.28,0.031,122.2
2021-04-29T01:07:03,42.805,6.029,0.063,-0.017,0.055,104.0,105.0,101.0,13.3,1505.2,324.8,-0.8,1.8,2467.733,13.28,0.065,105.1
2021-04-29T01:10:03,42.805,6.029,0.046,-0.017,-0.005,105.0,107.0,101.0,13.3,1505.2,327.7,-0.8,1.8,2467.736,13.28,0.049,110.3
2021-04-29T01:13:03,42.805,6.029,0.042,-0.022,0.045,105.0,104.0,103.0,13.4,1505.2,326.3,-0.8,1.8,2467.757,13.28,0.047,117.6
2021-04-29T01:16:03,42.805,6.029,0.059,-0.032,0.02,104.0,105.0,102.0,13.3,1505.2,326.6,-0.8,1.8,2467.801,13.28,0.067,118.5
2021-04-29T01:19:03,42.805,6.029,0.058,-0.017,0.049,104.0,104.0,102.0,13.3,1505.2,326.5,-0.8,1.8,2467.818,13.28,0.06,106.3
2021-04-29T01:22:03,42.805,6.029,0.041,-0.016,0.019,104.0,104.0,101.0,13.4,1505.2,324.2,-0.8,1.8,2467.844,13.28,0.044,111.3
2021-04-29T01:25:03,42.805,6.029,0.05,-0.025,0.004,104.0,106.0,102.0,13.4,1505.2,326.9,-0.7,1.9,2467.854,13.28,0.055,116.6
2021-04-29T01:28:03,42.805,6.029,0.048,-0.025,0.01,103.0,105.0,102.0,13.3,1505.2,327.8,-0.8,1.9,2467.932,13.28,0.054,117.5
2021-04-29T01:31:03,42.805,6.029,0.038,-0.012,0.031,104.0,105.0,103.0,13.4,1505.2,325.4,-0.7,1.8,2467.927,13.28,0.039,107.5
2021-04-29T01:34:03,42.805,6.029,0.066,-0.018,0.026,104.0,107.0,101.0,13.4,1505.2,325.0,-0.7,1.8,2467.969,13.28,0.068,105.3
2021-04-29T01:37:03,42.805,6.029,0.037,-0.035,-0.002,104.0,106.0,102.0,13.4,1505.2,327.4,-0.8,1.8,2467.978,13.28,0.05,133.4
2021-04-29T01:40:03,42.805,6.029,0.057,-0.024,0.023,105.0,105.0,102.0,13.4,1505.2,324.5,-0.7,1.8,2468.02,13.28,0.061,112.8
2021-04-29T01:43:03,42.805,6.029,0.051,-0.007,0.05,104.0,106.0,102.0,13.4,1505.2,326.4,-0.8,1.8,2468.027,13.28,0.051,97.8
2021-04-29T01:46:03,42.805,6.029,0.04,-0.035,0.032,104.0,105.0,102.0,13.4,1505.2,328.2,-0.7,1.8,2468.054,13.28,0.053,131.2
2021-04-29T01:49:03,42.805,6.029,0.028,-0.009,0.019,104.0,105.0,102.0,13.4,1505.2,326.3,-0.8,1.8,2468.1,13.28,0.029,107.8
2021-04-29T01:52:03,42.805,6.029,0.076,-0.027,0.019,104.0,105.0,103.0,13.3,1505.2,325.5,-0.8,1.8,2468.16,13.28,0.08,109.6
2021-04-29T01:55:03,42.805,6.029,0.041,-0.011,0.014,104.0,106.0,102.0,13.3,1505.2,327.2,-0.8,1.8,2468.18,13.28,0.042,105.0
2021-04-29T01:58:03,42.805,6.029,0.055,-0.032,0.0,104.0,105.0,102.0,13.3,1505.2,327.3,-0.7,1.9,2468.199,13.28,0.063,120.2
2021-04-29T02:04:03,42.805,6.029,0.057,-0.024,0.047,104.0,105.0,101.0,13.4,1505.2,327.2,-0.8,1.8,2468.321,13.28,0.061,112.8
2021-04-29T02:07:03,42.805,6.029,0.067,-0.036,0.023,104.0,106.0,102.0,13.3,1505.2,329.5,-0.7,1.8,2468.309,13.28,0.076,118.3
2021-04-29T02:10:03,42.805,6.029,0.049,-0.03,0.02,105.0,105.0,103.0,13.3,1505.2,326.0,-0.8,1.8,2468.358,13.28,0.057,121.5
2021-04-29T02:13:03,42.805,6.029,0.072,-0.042,0.016,104.0,105.0,102.0,13.4,1505.2,327.9,-0.7,1.8,2468.362,13.28,0.083,120.3
2021-04-29T02:16:03,42.805,6.029,0.038,-0.02,0.034,104.0,105.0,103.0,13.4,1505.2,328.3,-0.8,1.8,2468.355,13.28,0.042,117.8
2021-04-29T02:19:03,42.805,6.029,0.038,-0.036,0.006,105.0,107.0,104.0,13.4,1505.2,327.0,-0.8,1.8,2468.394,13.28,0.052,133.5
2021-04-29T02:22:03,42.805,6.029,0.049,-0.038,-0.005,104.0,106.0,103.0,13.4,1505.2,324.0,-0.8,1.8,2468.422,13.28,0.062,127.8
2021-04-29T02:25:03,42.805,6.029,0.077,-0.024,0.038,104.0,106.0,103.0,13.4,1505.2,326.7,-0.7,1.8,2468.427,13.28,0.08,107.3
2021-04-29T02:28:03,42.805,6.029,0.042,-0.027,0.031,104.0,106.0,103.0,13.3,1505.2,325.1,-0.7,1.8,2468.449,13.28,0.049,122.7
2021-04-29T02:31:03,42.805,6.029,0.06,-0.028,0.017,105.0,105.0,102.0,13.4,1505.2,327.5,-0.8,1.8,2468.53,13.28,0.066,115.0
2021-04-29T02:34:03,42.805,6.029,0.056,-0.02,0.054,104.0,106.0,102.0,13.4,1505.2,325.6,-0.8,1.8,2468.584,13.28,0.059,109.6
2021-04-29T02:37:03,42.805,6.029,0.066,-0.011,0.011,104.0,106.0,103.0,13.4,1505.2,328.9,-0.7,1.9,2468.594,13.28,0.066,99.5
2021-04-29T02:40:03,42.805,6.029,0.044,-0.012,0.008,104.0,105.0,102.0,13.3,1505.2,323.7,-0.8,1.8,2468.669,13.28,0.045,105.3
2021-04-29T02:43:03,42.805,6.029,0.039,-0.031,0.011,106.0,105.0,104.0,13.4,1505.2,325.1,-0.8,1.8,2468.641,13.28,0.049,128.5
2021-04-29T02:46:03,42.805,6.029,0.042,-0.038,0.005,104.0,106.0,102.0,13.4,1505.2,325.0,-0.8,1.8,2468.716,13.28,0.056,132.1
2021-04-29T02:49:03,42.805,6.029,0.064,-0.023,0.036,104.0,106.0,103.0,13.4,1505.2,327.6,-0.7,1.8,2468.735,13.28,0.068,109.8
2021-04-29T02:52:03,42.805,6.029,0.054,-0.028,0.033,103.0,106.0,103.0,13.4,1505.2,327.6,-0.7,1.8,2468.709,13.28,0.06,117.4
2021-04-29T02:55:03,42.805,6.029,0.06,-0.008,0.05,103.0,105.0,103.0,13.4,1505.2,327.9,-0.7,1.9,2468.747,13.28,0.06,97.6
2021-04-29T02:58:03,42.805,6.029,0.065,-0.026,0.005,103.0,105.0,102.0,13.4,1505.2,327.5,-0.8,1.9,2468.819,13.28,0.07,111.8
2021-04-29T03:04:03,42.805,6.029,0.045,-0.015,0.017,103.0,107.0,102.0,13.4,1505.2,328.6,-0.8,1.8,2468.848,13.28,0.047,108.4
2021-04-29T03:07:03,42.805,6.029,0.042,-0.013,0.024,105.0,105.0,101.0,13.4,1505.2,324.4,-0.7,1.8,2468.76,13.28,0.043,107.2
2021-04-29T03:10:03,42.805,6.029,0.052,-0.017,0.027,104.0,106.0,102.0,13.4,1505.2,326.4,-0.8,1.8,2468.849,13.28,0.054,108.1
2021-04-29T03:13:03,42.805,6.029,0.056,-0.033,0.017,104.0,105.0,102.0,13.4,1505.2,328.8,-0.7,1.8,2468.86,13.28,0.064,120.5
2021-04-29T03:16:03,42.805,6.029,0.058,-0.004,0.014,104.0,104.0,102.0,13.3,1505.2,327.2,-0.7,1.8,2468.835,13.28,0.058,93.9
2021-04-29T03:19:03,42.805,6.029,0.048,-0.011,0.018,105.0,104.0,101.0,13.4,1505.2,326.8,-0.7,1.8,2469.191,13.28,0.049,102.9
2021-04-29T03:22:03,42.805,6.029,0.045,-0.02,0.036,104.0,104.0,101.0,13.3,1505.2,325.4,-0.8,1.9,2469.36,13.28,0.049,114.0
2021-04-29T03:25:03,42.805,6.029,0.081,-0.022,0.02,103.0,106.0,100.0,13.4,1505.2,325.7,-0.8,1.8,2468.779,13.28,0.083,105.2
2021-04-29T03:28:03,42.805,6.029,0.068,-0.033,0.014,104.0,103.0,101.0,13.3,1505.2,326.0,-0.8,1.8,2469.259,13.28,0.075,115.9
2021-04-29T03:31:03,42.805,6.029,0.06,-0.009,0.035,103.0,104.0,103.0,13.4,1505.2,327.5,-0.8,1.8,2469.509,13.28,0.06,98.5
2021-04-29T03:34:03,42.805,6.029,0.047,-0.025,0.039,104.0,103.0,102.0,13.4,1505.2,324.2,-0.8,1.8,2469.396,13.28,0.053,118.0
2021-04-29T03:37:03,42.805,6.029,0.043,-0.028,-0.001,104.0,105.0,102.0,13.3,1505.2,325.9,-0.8,1.8,2469.417,13.28,0.051,123.1
2021-04-29T03:40:03,42.805,6.029,0.046,-0.024,0.026,103.0,105.0,102.0,13.4,1505.2,328.6,-0.7,1.8,2469.457,13.28,0.051,117.6
2021-04-29T03:43:03,42.805,6.029,0.04,-0.021,0.009,104.0,104.0,101.0,13.3,1505.2,327.6,-0.7,1.8,2469.366,13.28,0.045,117.7
2021-04-29T03:46:03,42.805,6.029,0.04,-0.035,0.01,104.0,104.0,103.0,13.4,1505.2,325.0,-0.7,1.8,2469.29,13.28,0.053,131.2
2021-04-29T03:49:03,42.805,6.029,0.041,-0.011,0.055,104.0,104.0,103.0,13.4,1505.2,327.2,-0.8,1.8,2469.121,13.28,0.042,105.0
2021-04-29T03:52:03,42.805,6.029,0.016,-0.021,-0.007,104.0,105.0,102.0,13.3,1505.2,327.7,-0.8,1.9,2469.153,13.28,0.026,142.7
2021-04-29T03:55:03,42.805,6.029,0.074,-0.029,0.016,103.0,104.0,103.0,13.4,1505.2,328.6,-0.8,1.8,2469.078,13.28,0.079,111.4
2021-04-29T03:58:03,42.805,6.029,0.074,-0.023,0.027,103.0,105.0,101.0,13.4,1505.2,324.2,-0.8,1.8,2468.647,13.28,0.077,107.3
2021-04-29T04:04:03,42.805,6.029,0.035,-0.017,0.011,104.0,106.0,102.0,13.4,1505.2,325.3,-0.7,1.8,2468.543,13.28,0.038,115.9
2021-04-29T04:07:03,42.805,6.029,0.041,0.0,0.046,102.0,105.0,101.0,13.4,1505.2,326.2,-0.8,1.8,2468.463,13.28,0.041,90.0
2021-04-29T04:10:03,42.805,6.029,0.064,-0.035,0.02,104.0,104.0,102.0,13.4,1505.2,328.5,-0.8,1.8,2468.342,13.28,0.072,118.7
2021-04-29T04:13:03,42.805,6.029,0.06,-0.024,0.012,103.0,105.0,102.0,13.4,1505.2,324.0,-0.7,1.8,2468.292,13.28,0.064,111.8
2021-04-29T04:16:03,42.805,6.029,0.032,-0.03,0.018,102.0,105.0,102.0,13.4,1505.2,326.6,-0.7,1.8,2468.198,13.28,0.043,133.1
2021-04-29T04:19:03,42.805,6.029,0.039,-0.021,0.049,103.0,105.0,102.0,13.3,1505.2,325.9,-0.7,1.8,2468.169,13.28,0.044,118.3
2021-04-29T04:22:03,42.805,6.029,0.031,-0.025,0.0,104.0,106.0,102.0,13.3,1505.2,327.2,-0.7,1.8,2468.137,13.28,0.039,128.9
2021-04-29T04:25:03,42.805,6.029,0.061,-0.023,-0.001,103.0,106.0,102.0,13.4,1505.2,327.6,-0.8,1.8,2468.086,13.28,0.065,110.7
2021-04-29T04:28:03,42.805,6.029,0.049,-0.037,0.01,103.0,105.0,102.0,13.3,1505.2,326.9,-0.7,1.8,2468.196,13.28,0.061,127.1
2021-04-29T04:31:03,42.805,6.029,0.047,-0.035,0.011,105.0,105.0,103.0,13.4,1505.2,324.3,-0.8,1.8,2468.092,13.28,0.058,126.7
2021-04-29T04:34:03,42.805,6.029,0.039,-0.022,0.018,104.0,105.0,101.0,13.4,1505.2,328.7,-0.7,1.8,2468.162,13.28,0.044,119.4
2021-04-29T04:37:03,42.805,6.029,0.017,-0.006,0.004,104.0,105.0,102.0,13.4,1505.2,325.6,-0.7,1.8,2468.121,13.28,0.018,109.4
2021-04-29T04:40:03,42.805,6.029,0.054,-0.017,0.041,103.0,104.0,102.0,13.4,1505.2,326.3,-0.8,1.8,2467.987,13.28,0.056,107.5
2021-04-29T04:43:03,42.805,6.029,0.062,-0.029,0.039,104.0,104.0,102.0,13.4,1505.2,324.9,-0.7,1.8,2467.885,13.28,0.068,115.1
2021-04-29T04:46:03,42.805,6.029,0.057,-0.027,0.013,103.0,105.0,102.0,13.4,1505.2,325.8,-0.7,1.8,2467.929,13.28,0.063,115.3
2021-04-29T04:49:03,42.805,6.029,0.039,-0.024,0.0,106.0,105.0,101.0,13.4,1505.2,328.1,-0.7,1.8,2467.915,13.28,0.045,121.6
2021-04-29T04:52:03,42.805,6.029,0.042,-0.024,0.002,103.0,105.0,102.0,13.3,1505.2,324.2,-0.7,1.8,2467.908,13.28,0.048,119.7
2021-04-29T04:55:03,42.805,6.029,0.044,-0.031,0.015,103.0,104.0,102.0,13.3,1505.2,325.6,-0.7,1.8,2467.847,13.28,0.053,125.2
2021-04-29T04:58:03,42.805,6.029,0.036,-0.017,0.017,103.0,103.0,102.0,13.4,1505.2,327.6,-0.8,1.8,2467.753,13.28,0.039,115.3
2021-04-29T05:04:03,42.805,6.029,0.054,-0.037,0.009,103.0,104.0,102.0,13.3,1505.2,326.4,-0.7,1.8,2467.752,13.28,0.065,124.4
2021-04-29T05:07:03,42.805,6.029,0.053,-0.016,0.011,104.0,104.0,102.0,13.3,1505.2,324.3,-0.7,1.8,2467.698,13.28,0.055,106.8
2021-04-29T05:10:03,42.805,6.029,0.055,-0.019,0.051,104.0,104.0,102.0,13.3,1505.2,327.6,-0.8,1.8,2467.689,13.28,0.058,109.1
2021-04-29T05:13:03,42.805,6.029,0.044,-0.028,-0.007,103.0,105.0,102.0,13.4,1505.2,326.4,-0.8,1.8,2467.667,13.28,0.052,122.5
2021-04-29T05:16:03,42.805,6.029,0.046,-0.04,-0.017,103.0,105.0,101.0,13.4,1505.2,326.6,-0.8,1.8,2467.642,13.28,0.06,131.0
2021-04-29T05:19:03,42.805,6.029,0.054,-0.035,0.005,104.0,104.0,102.0,13.4,1505.2,327.8,-0.7,1.8,2467.639,13.28,0.064,123.0
2021-04-29T05:22:03,42.805,6.029,0.025,-0.028,-0.025,104.0,104.0,103.0,13.3,1505.2,326.7,-0.8,1.8,2467.608,13.28,0.037,138.2
2021-04-29T05:25:03,42.805,6.029,0.059,-0.046,0.03,103.0,104.0,103.0,13.4,1505.2,327.8,-0.8,1.8,2467.595,13.28,0.074,127.9
2021-04-29T05:28:03,42.805,6.029,0.041,-0.01,0.012,103.0,105.0,101.0,13.4,1505.2,328.3,-0.8,1.8,2467.641,13.28,0.042,103.7
2021-04-29T05:31:03,42.805,6.029,0.017,-0.01,0.016,103.0,105.0,102.0,13.4,1505.2,327.9,-0.7,1.9,2467.649,13.28,0.019,120.5
2021-04-29T05:34:03,42.805,6.029,0.048,-0.031,-0.005,103.0,104.0,101.0,13.3,1505.2,328.7,-0.8,1.8,2467.615,13.28,0.057,122.9
2021-04-29T05:37:03,42.805,6.029,0.06,-0.024,0.022,102.0,104.0,101.0,13.4,1505.2,324.3,-0.8,1.8,2467.785,13.28,0.064,111.8
2021-04-29T05:40:03,42.805,6.029,0.04,-0.026,0.003,103.0,104.0,102.0,13.4,1505.2,324.7,-0.8,1.8,2468.025,13.28,0.047,123.0
2021-04-29T05:43:03,42.805,6.029,0.044,-0.031,0.009,103.0,103.0,102.0,13.4,1505.2,325.9,-0.7,1.8,2468.067,13.28,0.053,125.2
2021-04-29T05:46:03,42.805,6.029,0.036,-0.03,-0.021,104.0,105.0,100.0,13.4,1505.2,329.1,-0.7,1.9,2468.064,13.28,0.046,129.8
2021-04-29T05:49:03,42.805,6.029,0.064,-0.027,0.023,103.0,104.0,101.0,13.4,1505.2,327.3,-0.8,1.8,2467.963,13.28,0.069,112.9
2021-04-29T05:52:03,42.805,6.029,0.048,-0.029,0.039,103.0,104.0,102.0,13.4,1505.2,326.8,-0.7,1.8,2467.868,13.28,0.056,121.1
2021-04-29T05:55:03,42.805,6.029,0.036,-0.027,-0.002,102.0,104.0,101.0,13.4,1505.2,328.6,-0.8,1.8,2467.861,13.28,0.045,126.9
2021-04-29T05:58:03,42.805,6.029,0.022,-0.016,-0.007,102.0,104.0,101.0,13.3,1505.2,323.8,-0.8,1.8,2467.828,13.28,0.027,126.0
2021-04-29T06:04:03,42.805,6.029,0.045,-0.011,0.015,104.0,103.0,102.0,13.4,1505.2,323.6,-0.8,1.8,2467.645,13.28,0.046,103.7
2021-04-29T06:07:03,42.805,6.029,0.042,-0.033,0.003,102.0,104.0,102.0,13.4,1505.2,324.1,-0.8,1.8,2467.581,13.28,0.053,128.2
2021-04-29T06:10:03,42.805,6.029,0.03,-0.02,-0.01,102.0,105.0,101.0,13.4,1505.2,324.5,-0.7,1.8,2467.524,13.28,0.036,123.7
2021-04-29T06:13:03,42.805,6.029,0.042,-0.017,0.04,102.0,104.0,101.0,13.4,1505.2,325.2,-0.8,1.8,2467.466,13.28,0.045,112.0
2021-04-29T06:16:03,42.805,6.029,0.027,-0.004,0.023,102.0,103.0,101.0,13.3,1505.2,329.2,-0.7,1.8,2467.516,13.28,0.027,98.4
2021-04-29T06:19:03,42.805,6.029,0.033,-0.019,0.029,103.0,105.0,101.0,13.4,1505.2,327.0,-0.8,1.8,2467.498,13.28,0.038,119.9
2021-04-29T06:22:03,42.805,6.029,0.028,-0.017,0.014,102.0,105.0,102.0,13.4,1505.2,327.5,-0.7,1.8,2467.408,13.28,0.032,121.3
2021-04-29T06:25:03,42.805,6.029,0.013,-0.027,0.015,103.0,104.0,101.0,13.4,1505.2,325.8,-0.7,1.8,2467.335,13.28,0.029,154.3
2021-04-29T06:28:03,42.805,6.029,0.037,-0.003,0.009,102.0,103.0,102.0,13.4,1505.2,328.1,-0.7,1.8,2467.369,13.28,0.037,94.6
2021-04-29T06:31:03,42.805,6.029,0.032,-0.036,0.005,102.0,105.0,101.0,13.3,1505.2,329.0,-0.8,1.8,2467.311,13.28,0.048,138.4
2021-04-29T06:34:03,42.805,6.029,0.031,-0.025,0.009,102.0,104.0,102.0,13.3,1505.2,327.5,-0.7,1.8,2467.349,13.28,0.039,128.9
2021-04-29T06:37:03,42.805,6.029,0.058,-0.018,0.025,103.0,103.0,102.0,13.4,1505.2,324.1,-0.7,1.8,2467.397,13.28,0.06,107.2
2021-04-29T06:40:03,42.805,6.029,0.035,-0.007,0.02,102.0,104.0,101.0,13.4,1505.2,325.3,-0.7,1.8,2467.44,13.28,0.035,101.3
2021-04-29T06:43:03,42.805,6.029,0.057,-0.035,0.02,103.0,104.0,101.0,13.4,1505.2,325.9,-0.7,1.8,2467.456,13.28,0.066,121.6
2021-04-29T06:46:03,42.805,6.029,0.039,-0.019,0.05,102.0,104.0,101.0,13.4,1505.2,324.8,-0.8,1.8,2467.461,13.28,0.043,116.0
2021-04-29T06:49:03,42.805,6.029,0.039,-0.024,0.016,103.0,105.0,102.0,13.3,1505.2,327.7,-0.8,1.9,2467.584,13.28,0.045,121.6
2021-04-29T06:52:03,42.805,6.029,0.03,-0.004,0.007,102.0,104.0,101.0,13.4,1505.2,325.0,-0.8,1.8,2467.665,13.28,0.03,97.6
2021-04-29T06:55:03,42.805,6.029,0.03,-0.011,0.021,103.0,106.0,101.0,13.4,1505.2,325.9,-0.7,1.8,2467.669,13.28,0.031,110.1
2021-04-29T06:58:03,42.805,6.029,0.034,-0.023,-0.003,102.0,105.0,101.0,13.4,1505.2,325.6,-0.8,1.8,2467.783,13.28,0.041,124.1
2021-04-29T07:04:03,42.805,6.029,0.042,-0.023,0.015,103.0,104.0,102.0,13.4,1505.2,325.9,-0.7,1.8,2467.854,13.28,0.047,118.7
2021-04-29T07:07:03,42.805,6.029,0.047,-0.024,0.0,104.0,105.0,102.0,13.4,1505.2,325.8,-0.8,1.9,2467.883,13.28,0.052,117.0
2021-04-29T07:10:03,42.805,6.029,0.056,-0.012,0.027,101.0,106.0,103.0,13.3,1505.2,325.0,-0.7,1.8,2467.906,13.28,0.057,102.1
2021-04-29T07:13:03,42.805,6.029,0.044,-0.031,0.041,102.0,107.0,101.0,13.4,1505.2,328.3,-0.8,1.8,2467.953,13.28,0.053,125.2
2021-04-29T07:16:03,42.805,6.029,0.051,-0.022,0.02,102.0,106.0,101.0,13.4,1505.2,327.9,-0.8,1.8,2467.938,13.28,0.055,113.3
2021-04-29T07:19:03,42.805,6.029,0.042,-0.019,0.041,103.0,104.0,102.0,13.4,1505.2,323.6,-0.7,1.8,2467.939,13.28,0.046,114.3
2021-04-29T07:22:03,42.805,6.029,0.034,-0.022,0.006,103.0,104.0,101.0,13.4,1505.2,325.2,-0.7,1.8,2468.036,13.28,0.04,122.9
2021-04-29T07:25:03,42.805,6.029,0.068,-0.025,0.04,103.0,105.0,101.0,13.4,1505.2,327.9,-0.8,1.8,2468.047,13.28,0.072,110.2
2021-04-29T07:28:03,42.805,6.029,0.049,-0.025,0.015,102.0,104.0,102.0,13.4,1505.2,325.5,-0.7,1.8,2468.037,13.28,0.055,117.0
2021-04-29T07:31:03,42.805,6.029,0.035,-0.021,0.032,103.0,106.0,101.0,13.4,1505.2,325.6,-0.7,1.8,2468.097,13.28,0.04,121.0
2021-04-29T07:34:03,42.805,6.029,0.047,-0.028,0.034,103.0,104.0,103.0,13.4,1505.2,327.5,-0.8,1.8,2468.183,13.28,0.054,120.8
2021-04-29T07:37:03,42.805,6.029,0.035,-0.015,0.019,102.0,105.0,102.0,13.4,1505.2,327.7,-0.7,1.8,2468.137,13.28,0.038,113.2
2021-04-29T07:40:03,42.805,6.029,0.04,-0.031,0.034,104.0,104.0,102.0,13.3,1505.2,327.4,-0.8,1.9,2468.186,13.28,0.05,127.8
2021-04-29T07:43:03,42.805,6.029,0.073,-0.021,-0.01,104.0,104.0,102.0,13.3,1505.2,328.2,-0.7,1.8,2468.211,13.28,0.075,106.0
2021-04-29T07:46:03,42.805,6.029,0.033,-0.015,0.014,103.0,105.0,101.0,13.4,1505.2,325.9,-0.8,1.8,2468.243,13.28,0.036,114.4
2021-04-29T07:49:03,42.805,6.029,0.03,-0.016,0.007,102.0,104.0,103.0,13.3,1505.2,325.2,-0.8,1.8,2468.28,13.28,0.034,118.1
2021-04-29T07:52:03,42.805,6.029,0.07,-0.021,0.001,103.0,105.0,102.0,13.3,1505.2,326.4,-0.7,1.8,2468.292,13.28,0.073,106.7
2021-04-29T07:55:03,42.805,6.029,0.053,-0.03,-0.002,103.0,104.0,101.0,13.4,1505.2,325.3,-0.8,1.9,2468.395,13.28,0.06,119.5
2021-04-29T07:58:03,42.805,6.029,0.05,-0.013,0.033,104.0,105.0,102.0,13.3,1505.2,327.2,-0.8,1.9,2468.381,13.28,0.051,104.6
2021-04-29T08:04:03,42.805,6.029,0.057,-0.029,0.002,104.0,105.0,102.0,13.4,1505.2,326.7,-0.7,1.8,2468.532,13.28,0.063,117.0
2021-04-29T08:07:03,42.805,6.029,0.05,-0.009,0.005,103.0,105.0,102.0,13.4,1505.2,325.4,-0.8,1.8,2468.469,13.28,0.05,100.2
2021-04-29T08:10:03,42.805,6.029,0.022,-0.048,-0.005,104.0,106.0,102.0,13.3,1505.2,328.9,-0.7,1.8,2468.397,13.28,0.052,155.4
2021-04-29T08:13:03,42.805,6.029,0.04,-0.006,0.027,105.0,105.0,102.0,13.3,1505.2,325.2,-0.7,1.8,2468.385,13.28,0.04,98.5
2021-04-29T08:16:03,42.805,6.029,0.039,-0.035,0.002,103.0,104.0,102.0,13.4,1505.2,325.8,-0.8,1.8,2468.259,13.28,0.052,131.9
2021-04-29T08:19:03,42.805,6.029,0.06,-0.033,0.015,103.0,104.0,102.0,13.4,1505.2,326.7,-0.7,1.8,2468.272,13.28,0.068,118.8
2021-04-29T08:22:03,42.805,6.029,0.043,-0.011,0.03,104.0,104.0,103.0,13.4,1505.2,326.7,-0.8,1.8,2468.244,13.28,0.044,104.3
2021-04-29T08:25:03,42.805,6.029,0.037,-0.028,-0.031,104.0,105.0,101.0,13.4,1505.2,324.4,-0.8,1.8,2468.296,13.28,0.046,127.1
2021-04-29T08:28:03,42.805,6.029,0.033,-0.033,0.012,104.0,105.0,103.0,13.4,1505.2,327.3,-0.8,1.8,2468.249,13.28,0.046,135.0
2021-04-29T08:31:03,42.805,6.029,0.051,-0.042,0.009,104.0,105.0,102.0,13.3,1505.2,326.3,-0.8,1.8,2468.308,13.28,0.066,129.5
2021-04-29T08:34:03,42.805,6.029,0.048,-0.032,0.001,106.0,103.0,102.0,13.4,1505.2,326.5,-0.7,1.8,2468.247,13.28,0.057,123.7
2021-04-29T08:37:03,42.805,6.029,0.049,-0.028,0.031,103.0,104.0,104.0,13.4,1505.2,326.5,-0.7,1.8,2468.315,13.28,0.056,119.7
2021-04-29T08:40:03,42.805,6.029,0.037,-0.035,0.013,104.0,105.0,103.0,13.4,1505.2,329.0,-0.7,1.9,2468.345,13.28,0.05,133.4
2021-04-29T08:43:03,42.805,6.029,0.048,-0.011,-0.008,105.0,106.0,102.0,13.4,1505.2,326.0,-0.7,1.8,2468.343,13.28,0.049,102.9
2021-04-29T08:46:03,42.805,6.029,0.033,-0.008,0.007,104.0,105.0,102.0,13.4,1505.2,325.7,-0.7,1.8,2468.401,13.28,0.033,103.6
2021-04-29T08:49:03,42.805,6.029,0.037,-0.005,0.029,104.0,104.0,103.0,13.4,1505.2,326.4,-0.8,1.8,2468.398,13.28,0.037,97.7
2021-04-29T08:52:03,42.805,6.029,0.031,-0.016,0.002,105.0,104.0,101.0,13.4,1505.2,323.4,-0.8,1.8,2468.397,13.28,0.034,117.3
2021-04-29T08:55:03,42.805,6.029,0.032,-0.016,0.012,102.0,104.0,103.0,13.4,1505.2,326.1,-0.8,1.8,2468.445,13.28,0.035,116.6
2021-04-29T08:58:03,42.805,6.029,0.053,-0.024,0.026,103.0,104.0,102.0,13.4,1505.2,328.3,-0.7,1.8,2468.518,13.28,0.058,114.4
2021-04-29T09:04:03,42.805,6.029,0.03,-0.029,0.019,103.0,104.0,103.0,13.3,1505.2,327.3,-0.8,1.8,2468.633,13.28,0.041,134.0
2021-04-29T09:07:03,42.805,6.029,0.065,-0.006,-0.003,104.0,104.0,102.0,13.4,1505.2,326.4,-0.7,1.8,2468.631,13.28,0.065,95.3
2021-04-29T09:10:03,42.805,6.029,0.015,0.0,0.004,104.0,104.0,102.0,13.4,1505.2,326.0,-0.8,1.8,2468.649,13.28,0.015,90.0
2021-04-29T09:13:03,42.805,6.029,0.029,-0.019,0.021,104.0,104.0,103.0,13.4,1505.2,327.3,-0.8,1.8,2468.7,13.28,0.034,123.2
2021-04-29T09:16:03,42.805,6.029,0.059,-0.016,0.004,104.0,104.0,102.0,13.4,1505.2,325.4,-0.7,1.8,2469.412,13.28,0.061,105.2
2021-04-29T09:19:03,42.805,6.029,0.044,-0.026,0.025,104.0,104.0,102.0,13.4,1505.2,326.5,-0.7,1.8,2469.047,13.28,0.051,120.6
2021-04-29T09:22:03,42.805,6.029,0.035,-0.017,0.006,102.0,103.0,103.0,13.3,1505.2,325.2,-0.7,1.8,2469.104,13.28,0.038,115.9
2021-04-29T09:25:03,42.805,6.029,0.034,-0.05,-0.005,103.0,104.0,102.0,13.4,1505.2,328.0,-0.8,1.8,2469.047,13.28,0.06,145.8
2021-04-29T09:28:03,42.805,6.029,0.039,-0.013,0.011,104.0,105.0,100.0,13.4,1505.2,325.8,-0.8,1.8,2468.982,13.28,0.041,108.4
2021-04-29T09:31:03,42.805,6.029,0.04,-0.025,0.024,104.0,103.0,101.0,13.3,1505.2,328.6,-0.8,1.8,2468.864,13.28,0.047,122.0
2021-04-29T09:34:03,42.805,6.029,0.042,-0.038,0.015,103.0,104.0,102.0,13.4,1505.2,325.7,-0.8,1.8,2468.465,13.28,0.056,132.1
2021-04-29T09:37:03,42.805,6.029,0.029,-0.018,0.032,103.0,104.0,102.0,13.4,1505.2,327.4,-0.7,1.8,2468.517,13.28,0.034,121.8
2021-04-29T09:40:03,42.805,6.029,0.034,-0.012,0.011,103.0,103.0,102.0,13.3,1505.2,327.7,-0.7,1.8,2468.57,13.28,0.036,109.4
2021-04-29T09:43:03,42.805,6.029,0.039,-0.03,0.006,104.0,104.0,102.0,13.4,1505.2,324.9,-0.7,1.8,2468.667,13.28,0.049,127.6
2021-04-29T09:46:03,42.805,6.029,0.033,-0.02,0.024,103.0,104.0,102.0,13.4,1505.2,326.2,-0.7,1.9,2468.676,13.28,0.038,121.2
2021-04-29T09:49:03,42.805,6.029,0.071,-0.025,0.022,104.0,104.0,102.0,13.3,1505.2,326.4,-0.8,1.8,2468.782,13.28,0.075,109.4
2021-04-29T09:52:03,42.805,6.029,0.051,-0.043,0.004,104.0,103.0,101.0,13.3,1505.2,328.5,-0.7,1.8,2468.8,13.28,0.066,130.1
2021-04-29T09:55:03,42.805,6.029,0.054,-0.021,0.023,103.0,103.0,102.0,13.4,1505.2,325.0,-0.7,1.8,2468.863,13.28,0.057,111.2
2021-04-29T09:58:03,42.805,6.029,0.051,-0.012,0.02,102.0,105.0,101.0,13.4,1505.2,324.6,-0.8,1.8,2468.893,13.28,0.052,103.2